Terminal Aerodrome Forecast
Issued by NWS

Current Version | Previous Version | Text Only | Print | Product List | Glossary On
Versions: 1 2 3 4 5 6 7 8 9 10 11 12 13 14 15 16
000
FTUS42 KTBW 210500
TAFPGD
TAF
KPGD 210539Z 2106/2206 VRB04KT P6SM BKN100
     FM210900 VRB02KT 6SM BR BKN090
     FM211400 16007KT P6SM SCT030 BKN080 BKN250
     FM211900 18007KT P6SM BKN070 BKN200
     FM220000 15005KT P6SM VCSH BKN060 BKN120=

USA.gov is the U.S. government's official web portal to all federal, state and local government web resources and services.